• Em Portugal
  • Lista de países
  • Para 7 dias
  • Temperatura da água
  • Mapas de satélite
  • Mapa do tempo
  • Widgets de tempo
  • user-avatar
    Iniciar Sessão

    Previsão horária em Maceió

    Hoje, 22 Novembro, Quarta-feira

    Tempo Temperatura Precipitação Vento Pressão Humidade
    00:00 +25°C° 0 mm 3 m/s 758 mmHg 93%
    01:00 +24°C° 0 mm 3 m/s 758 mmHg 94%
    02:00 +24°C° 0 mm 3 m/s 758 mmHg 94%
    03:00 +24°C° 0 mm 3 m/s 758 mmHg 94%
    04:00 +24°C° 0 mm 3 m/s 758 mmHg 95%
    05:00 +25°C° 0 mm 3 m/s 758 mmHg 92%
    06:00 +25°C° 0 mm 3 m/s 758 mmHg 90%
    07:00 +26°C° 0 mm 3 m/s 758 mmHg 87%
    08:00 +28°C° 0 mm 3 m/s 759 mmHg 76%
    09:00 +30°C° 0 mm 3 m/s 759 mmHg 65%
    10:00 +33°C° 0 mm 3 m/s 759 mmHg 53%
    11:00 +34°C° 0 mm 4 m/s 759 mmHg 51%
    12:00 +35°C° 0 mm 4 m/s 758 mmHg 49%
    13:00 +35°C° 0 mm 5 m/s 758 mmHg 48%
    14:00 +35°C° 0 mm 5 m/s 758 mmHg 49%
    15:00 +35°C° 0 mm 5 m/s 757 mmHg 50%
    16:00 +34°C° 0 mm 5 m/s 757 mmHg 51%
    17:00 +33°C° 0 mm 5 m/s 757 mmHg 57%
    18:00 +30°C° 0 mm 5 m/s 757 mmHg 64%
    19:00 +28°C° 0 mm 5 m/s 757 mmHg 71%
    20:00 +27°C° 0 mm 5 m/s 758 mmHg 76%
    21:00 +27°C° 0 mm 5 m/s 758 mmHg 82%
    22:00 +26°C° 0 mm 5 m/s 759 mmHg 87%
    23:00 +26°C° 0 mm 5 m/s 758 mmHg 90%

    Amanhã, 23 Novembro, Quinta-feira

    Tempo Temperatura Precipitação Vento Pressão Humidade
    00:00 +25°C° 0 mm 4 m/s 758 mmHg 92%
    01:00 +25°C° 0 mm 4 m/s 758 mmHg 95%
    02:00 +25°C° 0 mm 4 m/s 758 mmHg 95%
    03:00 +25°C° 0 mm 4 m/s 758 mmHg 96%
    04:00 +25°C° 0 mm 4 m/s 758 mmHg 96%
    05:00 +25°C° 0 mm 4 m/s 758 mmHg 93%
    06:00 +26°C° 0 mm 4 m/s 758 mmHg 91%
    07:00 +26°C° 0 mm 5 m/s 759 mmHg 88%
    08:00 +28°C° 0 mm 5 m/s 759 mmHg 78%
    09:00 +30°C° 0 mm 5 m/s 759 mmHg 69%
    10:00 +33°C° 0 mm 6 m/s 759 mmHg 59%
    11:00 +34°C° 0 mm 6 m/s 759 mmHg 56%
    12:00 +35°C° 0 mm 6 m/s 759 mmHg 54%
    13:00 +35°C° 0 mm 6 m/s 759 mmHg 51%
    14:00 +35°C° 0 mm 7 m/s 758 mmHg 52%
    15:00 +34°C° 0 mm 7 m/s 758 mmHg 53%
    16:00 +34°C° 0 mm 7 m/s 757 mmHg 54%
    17:00 +32°C° 0 mm 6 m/s 757 mmHg 61%
    18:00 +30°C° 0 mm 6 m/s 757 mmHg 68%
    19:00 +28°C° 0 mm 6 m/s 758 mmHg 74%
    20:00 +28°C° 0 mm 6 m/s 758 mmHg 78%
    21:00 +27°C° 0 mm 5 m/s 759 mmHg 81%
    22:00 +26°C° 0 mm 5 m/s 759 mmHg 85%
    23:00 +26°C° 0 mm 5 m/s 759 mmHg 87%

    Depois de amanhã, 24 Novembro, Sexta-feira

    Tempo Temperatura Precipitação Vento Pressão Humidade
    00:00 +26°C° 0 mm 5 m/s 759 mmHg 89%
    01:00 +25°C° 0 mm 4 m/s 758 mmHg 91%
    02:00 +25°C° 0 mm 4 m/s 758 mmHg 93%
    03:00 +25°C° 0 mm 4 m/s 758 mmHg 94%
    04:00 +23°C° 0 mm 4 m/s 758 mmHg 95%
    05:00 +25°C° 0 mm 4 m/s 758 mmHg 92%
    06:00 +26°C° 0 mm 4 m/s 759 mmHg 89%
    07:00 +26°C° 0 mm 4 m/s 759 mmHg 86%
    08:00 +28°C° 0 mm 5 m/s 760 mmHg 77%
    09:00 +30°C° 0 mm 5 m/s 760 mmHg 68%
    10:00 +33°C° 0 mm 6 m/s 760 mmHg 58%
    11:00 +34°C° 0 mm 6 m/s 760 mmHg 55%
    12:00 +35°C° 0 mm 6 m/s 760 mmHg 53%
    13:00 +35°C° 0 mm 6 m/s 759 mmHg 50%
    14:00 +35°C° 0 mm 6 m/s 759 mmHg 51%
    15:00 +34°C° 0 mm 6 m/s 758 mmHg 53%
    16:00 +34°C° 0 mm 6 m/s 758 mmHg 54%
    17:00 +32°C° 0 mm 6 m/s 758 mmHg 61%
    18:00 +29°C° 0 mm 5 m/s 759 mmHg 68%
    19:00 +28°C° 0 mm 4 m/s 759 mmHg 75%
    20:00 +27°C° 0 mm 4 m/s 759 mmHg 80%
    21:00 +26°C° 0 mm 4 m/s 760 mmHg 85%
    22:00 +26°C° 0 mm 4 m/s 761 mmHg 90%
    23:00 +25°C° 0 mm 4 m/s 760 mmHg 91%

    25 Novembro, Sábado

    Tempo Temperatura Precipitação Vento Pressão Humidade
    00:00 +25°C° 0 mm 3 m/s 760 mmHg 93%
    01:00 +25°C° 0 mm 3 m/s 760 mmHg 95%
    02:00 +24°C° 0,1 mm 3 m/s 759 mmHg 95%
    03:00 +24°C° 0,1 mm 3 m/s 759 mmHg 96%
    04:00 +24°C° 0,1 mm 3 m/s 759 mmHg 96%
    05:00 +25°C° 0,2 mm 4 m/s 759 mmHg 93%
    06:00 +26°C° 0,2 mm 4 m/s 760 mmHg 90%
    07:00 +27°C° 0,2 mm 4 m/s 760 mmHg 87%
    08:00 +28°C° 0,2 mm 4 m/s 760 mmHg 77%
    09:00 +30°C° 0,2 mm 5 m/s 761 mmHg 67%
    10:00 +33°C° 0,2 mm 5 m/s 761 mmHg 58%
    11:00 +33°C° 0,2 mm 5 m/s 760 mmHg 56%
    12:00 +34°C° 0,2 mm 5 m/s 760 mmHg 55%
    13:00 +34°C° 0,2 mm 5 m/s 760 mmHg 53%
    14:00 +34°C° 0 mm 6 m/s 759 mmHg 54%
    15:00 +34°C° 0 mm 6 m/s 758 mmHg 54%
    16:00 +33°C° 0 mm 6 m/s 758 mmHg 55%
    17:00 +30°C° 0 mm 5 m/s 758 mmHg 64%
    18:00 +29°C° 0 mm 5 m/s 758 mmHg 72%
    19:00 +27°C° 0 mm 4 m/s 758 mmHg 81%
    20:00 +26°C° 0 mm 4 m/s 759 mmHg 84%
    21:00 +26°C° 0 mm 4 m/s 759 mmHg 88%
    22:00 +25°C° 0 mm 3 m/s 760 mmHg 91%
    23:00 +25°C° 0,1 mm 3 m/s 759 mmHg 92%

    26 Novembro, Domingo

    Tempo Temperatura Precipitação Vento Pressão Humidade
    00:00 +25°C° 0,1 mm 3 m/s 759 mmHg 92%
    01:00 +24°C° 0,1 mm 3 m/s 759 mmHg 93%
    02:00 +24°C° 0,1 mm 3 m/s 759 mmHg 93%
    03:00 +24°C° 0,1 mm 3 m/s 758 mmHg 93%
    04:00 +24°C° 0,1 mm 3 m/s 758 mmHg 93%
    05:00 +24°C° 0,1 mm 3 m/s 759 mmHg 90%
    06:00 +25°C° 0,1 mm 3 m/s 759 mmHg 87%
    07:00 +25°C° 0,1 mm 3 m/s 760 mmHg 84%
    08:00 +28°C° 0,1 mm 3 m/s 760 mmHg 73%
    09:00 +30°C° 0,1 mm 4 m/s 760 mmHg 63%
    10:00 +33°C° 0,1 mm 4 m/s 761 mmHg 52%
    11:00 +33°C° 0 mm 4 m/s 760 mmHg 50%
    12:00 +33°C° 0 mm 5 m/s 760 mmHg 49%
    13:00 +34°C° 0 mm 5 m/s 759 mmHg 48%
    14:00 +34°C° 0 mm 5 m/s 759 mmHg 49%
    15:00 +33°C° 0 mm 5 m/s 758 mmHg 50%
    16:00 +33°C° 0 mm 5 m/s 758 mmHg 51%
    17:00 +30°C° 0 mm 5 m/s 758 mmHg 58%
    18:00 +29°C° 0 mm 5 m/s 758 mmHg 66%
    19:00 +27°C° 0 mm 4 m/s 759 mmHg 74%
    20:00 +26°C° 0 mm 4 m/s 759 mmHg 78%
    21:00 +26°C° 0 mm 4 m/s 759 mmHg 83%
    22:00 +25°C° 0 mm 4 m/s 760 mmHg 87%
    23:00 +25°C° 0 mm 4 m/s 759 mmHg 89%

    27 Novembro, Segunda-feira

    Tempo Temperatura Precipitação Vento Pressão Humidade
    00:00 +24°C° 0 mm 3 m/s 759 mmHg 91%
    01:00 +24°C° 0 mm 3 m/s 759 mmHg 93%
    02:00 +24°C° 0,1 mm 3 m/s 758 mmHg 93%
    03:00 +24°C° 0,1 mm 3 m/s 758 mmHg 93%
    04:00 +24°C° 0,1 mm 3 m/s 758 mmHg 93%
    05:00 +25°C° 0,1 mm 4 m/s 759 mmHg 90%
    06:00 +26°C° 0,1 mm 4 m/s 759 mmHg 87%
    07:00 +26°C° 0,1 mm 4 m/s 760 mmHg 85%
    08:00 +28°C° 0,1 mm 4 m/s 760 mmHg 76%
    09:00 +30°C° 0,1 mm 5 m/s 760 mmHg 68%
    10:00 +32°C° 0,1 mm 5 m/s 760 mmHg 60%
    11:00 +33°C° 0 mm 5 m/s 760 mmHg 58%
    12:00 +33°C° 0 mm 5 m/s 760 mmHg 55%
    13:00 +34°C° 0 mm 5 m/s 759 mmHg 53%
    14:00 +34°C° 0 mm 5 m/s 759 mmHg 53%
    15:00 +33°C° 0 mm 5 m/s 759 mmHg 54%
    16:00 +33°C° 0 mm 5 m/s 758 mmHg 54%
    17:00 +32°C° 0 mm 5 m/s 758 mmHg 61%
    18:00 +29°C° 0 mm 5 m/s 759 mmHg 68%
    19:00 +27°C° 0 mm 4 m/s 759 mmHg 74%
    20:00 +27°C° 0 mm 4 m/s 759 mmHg 79%
    21:00 +26°C° 0 mm 4 m/s 760 mmHg 83%
    22:00 +25°C° 0 mm 4 m/s 760 mmHg 88%
    23:00 +25°C° 0 mm 4 m/s 760 mmHg 90%
    Mostrar mais